ANZ915 NFFN-YSSY

Flight info

Callsign ANZ915
Flight time N/A
Altitude 30000
Route MI DCT VIBEX G224 TERUX/N0477F320 G224 NF B450 LHI H258 RIKNI N774 MARLN MARLN5/25
Aircraft B738/M-SDE2E3FGHIRWXY/LB1

Departure

Time N/A
Airport Nadi International Airport (NFFN)

Arrival

Time 2026-05-07 07:13
Airport Sydney Kingsford Smith International Airport (YSSY)
Time Latitude Longitude Altitude Speed Heading
2026-05-07 06:18 -34.03091 152.08702 22246 ft 381 kts 95°
2026-05-07 06:18 -34.03374 152.11862 21857 ft 379 kts 95°
2026-05-07 06:19 -34.03656 152.15025 21435 ft 379 kts 95°
2026-05-07 06:19 -34.03933 152.18141 21118 ft 375 kts 95°
2026-05-07 06:19 -34.04207 152.21266 20737 ft 372 kts 95°
2026-05-07 06:19 -34.04482 152.24359 20329 ft 371 kts 95°
2026-05-07 06:20 -34.04760 152.27432 20007 ft 367 kts 95°
2026-05-07 06:20 -34.05029 152.30440 19924 ft 355 kts 95°
2026-05-07 06:20 -34.05291 152.33395 19869 ft 360 kts 95°
2026-05-07 06:20 -34.05558 152.36427 19801 ft 367 kts 95°
2026-05-07 06:21 -34.05831 152.39438 19749 ft 356 kts 96°
2026-05-07 06:21 -34.06105 152.42398 19723 ft 359 kts 95°
2026-05-07 06:21 -34.06390 152.45460 19657 ft 370 kts 95°
2026-05-07 06:21 -34.06698 152.48534 19618 ft 370 kts 96°
2026-05-07 06:22 -34.07018 152.51588 19583 ft 357 kts 95°
2026-05-07 06:22 -34.07661 152.57555 19550 ft 371 kts 95°
2026-05-07 06:22 -34.07999 152.60631 19490 ft 364 kts 95°
2026-05-07 06:23 -34.08340 152.63626 19484 ft 361 kts 94°
2026-05-07 06:23 -34.08644 152.66666 19462 ft 371 kts 92°
2026-05-07 06:23 -34.08943 152.69754 19446 ft 366 kts 92°
2026-05-07 06:23 -34.09236 152.72745 19415 ft 356 kts 92°
2026-05-07 06:24 -34.09542 152.75751 19414 ft 369 kts 92°
2026-05-07 06:24 -34.09861 152.78832 19404 ft 370 kts 92°
2026-05-07 06:24 -34.10197 152.81898 19395 ft 370 kts 92°
2026-05-07 06:24 -34.10551 152.84946 19398 ft 367 kts 92°
2026-05-07 06:25 -34.10910 152.88023 19407 ft 369 kts 92°
2026-05-07 06:25 -34.11263 152.91090 19398 ft 369 kts 92°
2026-05-07 06:25 -34.11623 152.94139 19384 ft 370 kts 91°
2026-05-07 06:25 -34.12004 152.97188 19411 ft 370 kts 92°
2026-05-07 06:26 -34.12413 153.00258 19472 ft 371 kts 92°
2026-05-07 06:26 -34.12672 153.03332 19450 ft 364 kts 78°
2026-05-07 06:26 -34.12189 153.06226 19299 ft 338 kts 55°
2026-05-07 06:26 -34.10960 153.08508 19242 ft 308 kts 32°
2026-05-07 06:27 -34.09264 153.09851 19280 ft 286 kts
2026-05-07 06:27 -34.07381 153.10167 19321 ft 266 kts 346°
2026-05-07 06:27 -34.05680 153.09450 19316 ft 256 kts 323°
2026-05-07 06:27 -34.04435 153.07980 19329 ft 254 kts 306°
2026-05-07 06:28 -34.03654 153.06064 19332 ft 254 kts 296°
2026-05-07 06:28 -34.03056 153.04033 19409 ft 258 kts 294°
2026-05-07 06:28 -34.02530 153.01950 19399 ft 263 kts 287°
2026-05-07 06:28 -34.02471 152.99705 19314 ft 274 kts 273°
2026-05-07 06:29 -34.02683 152.97418 19211 ft 273 kts 275°
2026-05-07 06:29 -34.02712 152.95157 18963 ft 267 kts 279°
2026-05-07 06:29 -34.02654 152.92946 18748 ft 265 kts 278°
2026-05-07 06:29 -34.02603 152.90735 18514 ft 267 kts 277°
2026-05-07 06:30 -34.02589 152.88466 18268 ft 269 kts 275°
2026-05-07 06:30 -34.02609 152.86224 18006 ft 269 kts 275°
2026-05-07 06:30 -34.02641 152.83964 17763 ft 270 kts 275°
2026-05-07 06:30 -34.02675 152.81702 17513 ft 268 kts 274°
2026-05-07 06:31 -34.02708 152.79472 17268 ft 267 kts 273°
2026-05-07 06:31 -34.02737 152.77208 17031 ft 268 kts 272°
2026-05-07 06:31 -34.02766 152.74970 16774 ft 267 kts 272°
2026-05-07 06:31 -34.02797 152.72752 16521 ft 264 kts 271°
2026-05-07 06:32 -34.02829 152.70537 16267 ft 264 kts 271°
2026-05-07 06:32 -34.02857 152.68311 16013 ft 265 kts 271°
2026-05-07 06:32 -34.02883 152.66118 15762 ft 265 kts 271°
2026-05-07 06:32 -34.02909 152.63873 15502 ft 264 kts 270°
2026-05-07 06:33 -34.02935 152.61668 15251 ft 263 kts 270°
2026-05-07 06:33 -34.02961 152.59450 14995 ft 263 kts 269°
2026-05-07 06:33 -34.02986 152.57250 14739 ft 261 kts 269°
2026-05-07 06:33 -34.03011 152.55063 14483 ft 261 kts 268°
2026-05-07 06:34 -34.03035 152.52889 14231 ft 262 kts 268°
2026-05-07 06:34 -34.03060 152.50694 13971 ft 261 kts 268°
2026-05-07 06:34 -34.03085 152.48494 13704 ft 260 kts 268°
2026-05-07 06:34 -34.03108 152.46335 13441 ft 258 kts 268°
2026-05-07 06:35 -34.03131 152.44161 13190 ft 259 kts 267°
2026-05-07 06:35 -34.03155 152.41998 12933 ft 260 kts 267°
2026-05-07 06:35 -34.03177 152.39806 12664 ft 258 kts 266°
2026-05-07 06:35 -34.03199 152.37668 12407 ft 255 kts 267°
2026-05-07 06:36 -34.03219 152.35545 12153 ft 254 kts 266°
2026-05-07 06:36 -34.03240 152.33411 11905 ft 255 kts 266°
2026-05-07 06:36 -34.03261 152.31259 11640 ft 255 kts 266°
2026-05-07 06:36 -34.03274 152.29150 11379 ft 252 kts 266°
2026-05-07 06:37 -34.03290 152.27010 11109 ft 252 kts 265°
2026-05-07 06:37 -34.03314 152.24907 10851 ft 251 kts 266°
2026-05-07 06:37 -34.03338 152.22804 10593 ft 251 kts 265°
2026-05-07 06:37 -34.03361 152.20711 10336 ft 250 kts 265°
2026-05-07 06:38 -34.03379 152.18608 10080 ft 250 kts 265°
2026-05-07 06:38 -34.03395 152.16510 9822 ft 249 kts 265°
2026-05-07 06:38 -34.03411 152.14430 9565 ft 247 kts 265°
2026-05-07 06:38 -34.03424 152.12369 9311 ft 245 kts 265°
2026-05-07 06:39 -34.03435 152.10323 9055 ft 245 kts 265°
2026-05-07 06:39 -34.03445 152.08252 8793 ft 244 kts 264°
2026-05-07 06:39 -34.03418 152.06221 8540 ft 244 kts 268°
2026-05-07 06:39 -34.03256 152.04164 8288 ft 246 kts 271°
2026-05-07 06:40 -34.03027 152.02127 8032 ft 246 kts 272°
2026-05-07 06:40 -34.02793 152.00079 7775 ft 245 kts 272°
2026-05-07 06:40 -34.02579 151.98064 7521 ft 243 kts 272°
2026-05-07 06:40 -34.02375 151.96045 7268 ft 243 kts 272°
2026-05-07 06:41 -34.02171 151.94019 7005 ft 242 kts 272°
2026-05-07 06:41 -34.01972 151.92020 6756 ft 241 kts 271°
2026-05-07 06:41 -34.01772 151.90015 6504 ft 240 kts 272°
2026-05-07 06:41 -34.01565 151.88025 6252 ft 240 kts 272°
2026-05-07 06:42 -34.01356 151.86028 5996 ft 238 kts 272°
2026-05-07 06:42 -34.01156 151.84079 5939 ft 235 kts 272°
2026-05-07 06:42 -34.00954 151.82085 5944 ft 239 kts 272°
2026-05-07 06:42 -34.00747 151.80103 5946 ft 239 kts 272°
2026-05-07 06:43 -34.00505 151.78105 5942 ft 240 kts 277°
2026-05-07 06:43 -33.99959 151.76190 5941 ft 245 kts 289°
2026-05-07 06:43 -33.99157 151.74339 5949 ft 248 kts 292°
2026-05-07 06:43 -33.98337 151.72510 5932 ft 249 kts 292°
2026-05-07 06:44 -33.97547 151.70659 5673 ft 248 kts 290°
2026-05-07 06:44 -33.96777 151.68790 5421 ft 245 kts 290°
2026-05-07 06:44 -33.96031 151.66962 5170 ft 244 kts 290°
2026-05-07 06:44 -33.95277 151.65115 4917 ft 242 kts 290°
2026-05-07 06:45 -33.94536 151.63310 4664 ft 241 kts 290°
2026-05-07 06:45 -33.93791 151.61497 4411 ft 241 kts 290°
2026-05-07 06:45 -33.93049 151.59683 4161 ft 239 kts 290°
2026-05-07 06:45 -33.92321 151.57909 3918 ft 238 kts 290°
2026-05-07 06:46 -33.91575 151.56102 3663 ft 237 kts 290°
2026-05-07 06:46 -33.90843 151.54335 3410 ft 235 kts 290°
2026-05-07 06:46 -33.90121 151.52580 3160 ft 235 kts 290°
2026-05-07 06:46 -33.89398 151.50824 2966 ft 231 kts 290°
2026-05-07 06:47 -33.88688 151.49100 2975 ft 225 kts 290°
2026-05-07 06:47 -33.88008 151.47456 2960 ft 209 kts 288°
2026-05-07 06:47 -33.87569 151.45885 2959 ft 185 kts 268°
2026-05-07 06:47 -33.87730 151.44431 2971 ft 170 kts 252°
2026-05-07 06:48 -33.88033 151.43053 2976 ft 171 kts 252°
2026-05-07 06:48 -33.88338 151.41678 2973 ft 169 kts 251°
2026-05-07 06:48 -33.88663 151.40291 2972 ft 170 kts 251°
2026-05-07 06:48 -33.88990 151.38927 2975 ft 168 kts 250°
2026-05-07 06:49 -33.89318 151.37564 2976 ft 170 kts 251°
2026-05-07 06:49 -33.89641 151.36209 2983 ft 168 kts 250°
2026-05-07 06:49 -33.89964 151.34860 2867 ft 166 kts 251°
2026-05-07 06:49 -33.90284 151.33519 2585 ft 163 kts 251°
2026-05-07 06:50 -33.90580 151.32265 2340 ft 150 kts 251°
2026-05-07 06:50 -33.90861 151.31100 2108 ft 138 kts 251°
2026-05-07 06:50 -33.91135 151.29970 1938 ft 141 kts 251°
2026-05-07 06:50 -33.91403 151.28828 1740 ft 142 kts 252°
2026-05-07 06:51 -33.91676 151.27696 1541 ft 141 kts 251°
2026-05-07 06:51 -33.91933 151.26623 1364 ft 142 kts 252°
2026-05-07 06:51 -33.92204 151.25470 1172 ft 142 kts 253°
2026-05-07 06:51 -33.92476 151.24336 993 ft 140 kts 252°
2026-05-07 06:52 -33.92748 151.23202 789 ft 142 kts 253°
2026-05-07 06:52 -33.93018 151.22064 605 ft 141 kts 254°
2026-05-07 06:52 -33.93281 151.20964 404 ft 139 kts 256°
2026-05-07 06:52 -33.93554 151.19832 258 ft 143 kts 255°
2026-05-07 06:53 -33.93830 151.18674 74 ft 139 kts 256°
2026-05-07 06:53 -33.94072 151.17641 20 ft 119 kts 257°
2026-05-07 06:53 -33.94291 151.16653 223 ft 127 kts 256°
2026-05-07 06:53 -33.94526 151.15617 607 ft 133 kts 256°
2026-05-07 06:54 -33.94813 151.14467 914 ft 150 kts 254°
2026-05-07 06:54 -33.95040 151.13358 1731 ft 140 kts 252°
2026-05-07 06:54 -33.95270 151.12254 2492 ft 135 kts 251°
2026-05-07 06:54 -33.95516 151.11177 3010 ft 135 kts 251°
2026-05-07 06:55 -33.95762 151.10088 3003 ft 133 kts 252°
2026-05-07 06:55 -33.95994 151.09007 2995 ft 132 kts 251°
2026-05-07 06:55 -33.96213 151.07944 2992 ft 131 kts 253°
2026-05-07 06:55 -33.96448 151.06891 2982 ft 130 kts 240°
2026-05-07 06:56 -33.97133 151.06220 2975 ft 136 kts 197°
2026-05-07 06:56 -33.98182 151.06409 3021 ft 170 kts 169°
2026-05-07 06:56 -33.99341 151.06932 2988 ft 180 kts 168°
2026-05-07 06:56 -34.00538 151.07455 2994 ft 183 kts 169°
2026-05-07 06:57 -34.01730 151.07968 2995 ft 181 kts 168°
2026-05-07 06:57 -34.02853 151.08734 2994 ft 195 kts 142°
2026-05-07 06:57 -34.03530 151.10216 2997 ft 210 kts 114°
2026-05-07 06:57 -34.03921 151.11914 2988 ft 211 kts 112°
2026-05-07 06:58 -34.04310 151.13621 2985 ft 210 kts 113°
2026-05-07 06:58 -34.04706 151.15338 2995 ft 213 kts 113°
2026-05-07 06:58 -34.05097 151.17038 2989 ft 211 kts 113°
2026-05-07 06:58 -34.05496 151.18751 2987 ft 211 kts 112°
2026-05-07 06:59 -34.05603 151.20549 2987 ft 220 kts 84°
2026-05-07 06:59 -34.05230 151.22351 2990 ft 224 kts 77°
2026-05-07 06:59 -34.04817 151.24139 2984 ft 219 kts 78°
2026-05-07 06:59 -34.04416 151.25919 2980 ft 217 kts 78°
2026-05-07 07:00 -34.04020 151.27666 2987 ft 215 kts 78°
2026-05-07 07:00 -34.03626 151.29401 2983 ft 215 kts 78°
2026-05-07 07:00 -34.03228 151.31139 2985 ft 214 kts 78°
2026-05-07 07:00 -34.02831 151.32881 2988 ft 216 kts 78°
2026-05-07 07:01 -34.02432 151.34613 2984 ft 216 kts 78°
2026-05-07 07:01 -34.02033 151.36343 2982 ft 214 kts 78°
2026-05-07 07:01 -34.01632 151.38088 2979 ft 214 kts 78°
2026-05-07 07:01 -34.01233 151.39815 2980 ft 215 kts 78°
2026-05-07 07:02 -34.00822 151.41571 2979 ft 217 kts 78°
2026-05-07 07:02 -34.00408 151.43320 2974 ft 214 kts 78°
2026-05-07 07:02 -34.00001 151.45048 2976 ft 216 kts 78°
2026-05-07 07:02 -33.99599 151.46774 2975 ft 214 kts 78°
2026-05-07 07:03 -33.99192 151.48515 2976 ft 214 kts 75°
2026-05-07 07:03 -33.98426 151.50049 2975 ft 215 kts 39°
2026-05-07 07:03 -33.97121 151.50829 2976 ft 207 kts
2026-05-07 07:03 -33.95727 151.50748 2982 ft 198 kts 343°
2026-05-07 07:04 -33.94363 151.50478 2975 ft 196 kts 343°
2026-05-07 07:04 -33.92990 151.50214 2978 ft 199 kts 343°
2026-05-07 07:04 -33.91627 151.49957 2975 ft 198 kts 343°
2026-05-07 07:04 -33.90252 151.49695 2976 ft 198 kts 343°
2026-05-07 07:05 -33.88887 151.49435 2976 ft 198 kts 343°
2026-05-07 07:05 -33.87477 151.49162 3049 ft 213 kts 343°
2026-05-07 07:05 -33.86034 151.48874 3168 ft 202 kts 343°
2026-05-07 07:05 -33.84784 151.48373 3071 ft 179 kts 314°
2026-05-07 07:06 -33.84125 151.47269 2876 ft 153 kts 272°
2026-05-07 07:06 -33.84317 151.46109 2639 ft 141 kts 230°
2026-05-07 07:06 -33.85117 151.45460 2568 ft 153 kts 202°
2026-05-07 07:06 -33.86190 151.45039 2968 ft 160 kts 214°
2026-05-07 07:07 -33.86954 151.44170 2990 ft 146 kts 231°
2026-05-07 07:07 -33.87576 151.43236 2984 ft 144 kts 236°
2026-05-07 07:07 -33.88098 151.42105 2988 ft 160 kts 245°
2026-05-07 07:07 -33.88492 151.40837 2972 ft 156 kts 249°
2026-05-07 07:08 -33.88799 151.39651 2981 ft 145 kts 250°
2026-05-07 07:08 -33.89077 151.38530 2979 ft 137 kts 250°
2026-05-07 07:08 -33.89344 151.37434 2982 ft 135 kts 250°
2026-05-07 07:08 -33.89609 151.36336 2986 ft 137 kts 250°
2026-05-07 07:09 -33.89875 151.35223 2872 ft 138 kts 250°
2026-05-07 07:09 -33.90140 151.34116 2647 ft 136 kts 251°
2026-05-07 07:09 -33.90396 151.33044 2520 ft 133 kts 250°
2026-05-07 07:09 -33.90656 151.31959 2271 ft 133 kts 251°
2026-05-07 07:10 -33.90909 151.30907 2108 ft 133 kts 250°
2026-05-07 07:10 -33.91168 151.29822 1909 ft 132 kts 251°
2026-05-07 07:10 -33.91424 151.28749 1748 ft 139 kts 250°
2026-05-07 07:10 -33.91694 151.27623 1520 ft 138 kts 251°
2026-05-07 07:11 -33.91945 151.26556 1361 ft 141 kts 252°
2026-05-07 07:11 -33.92215 151.25441 1145 ft 141 kts 252°
2026-05-07 07:11 -33.92486 151.24301 989 ft 139 kts 253°
2026-05-07 07:11 -33.92750 151.23183 787 ft 138 kts 253°
2026-05-07 07:12 -33.93016 151.22067 604 ft 140 kts 254°
2026-05-07 07:12 -33.93286 151.20943 414 ft 137 kts 255°
2026-05-07 07:12 -33.93551 151.19840 193 ft 137 kts 255°
2026-05-07 07:12 -33.93809 151.18771 48 ft 124 kts 257°
2026-05-07 07:13 -33.94013 151.17888 13 ft 80 kts 255°
2026-05-07 07:13 -33.94118 151.17441 15 ft 45 kts 255°
2026-05-07 07:13 -33.94187 151.17152 21 ft 28 kts 254°
2026-05-07 07:13 -33.94236 151.16946 21 ft 22 kts 256°
2026-05-07 07:14 -33.94209 151.16862 21 ft 5 kts 332°
2026-05-07 07:14 -33.94191 151.16855 21 ft 0 kts 346°
2026-05-07 07:15 -33.94187 151.16855 21 ft 3 kts 346°
2026-05-07 07:16 -33.94158 151.16846 21 ft 5 kts 344°
2026-05-07 07:16 -33.94119 151.16832 22 ft 4 kts 345°
2026-05-07 07:16 -33.94085 151.16823 23 ft 6 kts 345°
2026-05-07 07:16 -33.94033 151.16808 24 ft 8 kts 345°
2026-05-07 07:17 -33.93979 151.16789 25 ft 6 kts 343°
2026-05-07 07:17 -33.93940 151.16774 25 ft 5 kts 343°
2026-05-07 07:17 -33.93895 151.16759 25 ft 5 kts 343°
2026-05-07 07:17 -33.93870 151.16744 25 ft 3 kts 302°
2026-05-07 07:18 -33.93875 151.16702 25 ft 7 kts 246°
2026-05-07 07:18 -33.93887 151.16658 25 ft 4 kts 255°
2026-05-07 07:18 -33.93889 151.16646 25 ft 0 kts 254°